Clines Corners, NM

10:07 PM MDT on July 27, 2016 (GMT -0600)
Clines Corner

Weather History for KCQC - September, 2013

Change the Weather History Date:

Sunday, September 15, 2013

  Actual Average (KSAF) Record (KSAF)
Temperature  
Mean Temperature 61 °F -  
Max Temperature 72 °F 81 °F 89 °F (2010)
Min Temperature 50 °F 48 °F 37 °F (2005)
Degree Days  
Heating Degree Days 4    
Growing Degree Days 11 (Base 50)    
Moisture  
Dew Point 51 °F    
Average Humidity 79    
Maximum Humidity 96    
Minimum Humidity 48    
Precipitation  
Precipitation 0.54 in - - ()
Sea Level Pressure  
Sea Level Pressure 30.07 in    
Wind  
Wind Speed 10 mph (West)    
Max Wind Speed 22 mph    
Max Gust Speed 26 mph    
Visibility 8 miles    
Events Rain    
Averages and records for this station are not official NWS values.
T = Trace of Precipitation, MM = Missing Value Source: NWS Daily Summary

Daily Weather History Graph

Daily Weather History Graph

Search for Another Location

Airport or City:

Trip Planner

Search our weather history database for the weather conditions in past years. The results will help you decide how hot, cold, wet, or windy it might be!

Date:

Astronomy

Sep. 15, 2013 Rise Set
Actual Time 6:45 AM MDT 7:09 PM MDT
Civil Twilight 6:20 AM MDT 7:34 PM MDT
Nautical Twilight 5:50 AM MDT 8:04 PM MDT
Astronomical Twilight 5:20 AM MDT 8:34 PM MDT
Moon 4:32 PM MDT (9/15) 2:34 AM MDT (9/15)
Length of Visible Light 13h 14m
Length of Day
12h 23m
Waxing Gibbous, 82% of the Moon is Illuminated
Sep 15
Waxing Gibbous
Sep 19
Full
Sep 26
Last Quarter
Oct 4
New
Oct 11
First Quarter

Hourly Weather History & Observations

Time (MDT) Temp. Dew Point Humidity Pressure Visibility Wind Dir Wind Speed Gust Speed Precip Events Conditions
12:53 AM 57.0 °F 53.1 °F 87% 29.95 in 10.0 mi SSW 4.6 mph - N/A   Scattered Clouds
1:53 AM 57.0 °F 52.0 °F 83% 29.94 in 10.0 mi NW 3.5 mph - 0.00 in Rain Light Rain
2:39 AM 53.6 °F 51.8 °F 94% 30.19 in 10.0 mi NNW 13.8 mph - 0.06 in   Overcast
2:46 AM 53.6 °F 51.8 °F 94% 30.19 in 10.0 mi NW 11.5 mph 18.4 mph 0.06 in   Overcast
2:53 AM 54.0 °F 51.1 °F 90% 29.96 in 10.0 mi NW 17.3 mph 21.9 mph 0.06 in   Overcast
3:01 AM 53.6 °F 51.8 °F 94% 30.20 in 9.0 mi WNW 17.3 mph 23.0 mph 0.00 in Rain Light Rain
3:09 AM 53.6 °F 50.0 °F 88% 30.22 in 4.0 mi WNW 21.9 mph 26.5 mph 0.01 in Rain Heavy Rain
3:14 AM 53.6 °F 50.0 °F 88% 30.21 in 2.0 mi NW 19.6 mph 26.5 mph 0.10 in Rain Heavy Rain
3:22 AM 51.8 °F 50.0 °F 94% 30.21 in 1.8 mi NW 18.4 mph 24.2 mph 0.24 in Rain Heavy Rain
3:27 AM 51.8 °F 50.0 °F 94% 30.21 in 2.5 mi NNW 16.1 mph 24.2 mph 0.27 in Rain Rain
3:34 AM 51.8 °F 50.0 °F 94% 30.20 in 4.0 mi NNW 16.1 mph - 0.29 in Rain Rain
3:53 AM 52.0 °F 50.0 °F 93% 29.98 in 7.0 mi NNW 15.0 mph - 0.32 in Rain Light Rain
4:53 AM 53.1 °F 48.9 °F 86% 29.96 in 10.0 mi North 9.2 mph - 0.01 in   Overcast
5:53 AM 52.0 °F 50.0 °F 93% 29.99 in 10.0 mi ESE 3.5 mph - N/A   Overcast
6:53 AM 50.0 °F 48.9 °F 96% 30.02 in 8.0 mi SE 3.5 mph - 0.01 in   Partly Cloudy
7:53 AM 53.1 °F 51.1 °F 93% 30.03 in 10.0 mi WSW 3.5 mph - N/A   Clear
8:53 AM 61.0 °F 50.0 °F 67% 30.00 in 10.0 mi Calm Calm - N/A   Mostly Cloudy
9:53 AM 62.1 °F 48.0 °F 60% 30.02 in 10.0 mi WSW 4.6 mph - N/A   Clear
10:53 AM 66.0 °F 51.1 °F 59% 30.01 in 10.0 mi Variable 3.5 mph - N/A   Partly Cloudy
11:53 AM 66.9 °F 51.1 °F 57% 30.02 in 10.0 mi Calm Calm - N/A   Partly Cloudy
12:53 PM 69.1 °F 50.0 °F 51% 30.01 in 10.0 mi SSE 3.5 mph - N/A   Clear
1:53 PM 70.0 °F 50.0 °F 49% 29.98 in 10.0 mi WSW 6.9 mph - N/A   Mostly Cloudy
2:53 PM 72.0 °F 51.1 °F 48% 29.97 in 10.0 mi WNW 9.2 mph - N/A   Scattered Clouds
3:53 PM 62.1 °F 51.1 °F 67% 30.04 in 10.0 mi South 11.5 mph - N/A   Overcast
4:04 PM 57.2 °F 51.8 °F 82% 30.25 in 1.8 mi South 8.1 mph - 0.04 in Rain Heavy Rain
4:13 PM 59.0 °F 51.8 °F 77% 30.25 in 4.0 mi South 12.7 mph 18.4 mph 0.14 in Rain Light Rain
4:53 PM 62.1 °F 52.0 °F 70% 30.03 in 10.0 mi SSE 11.5 mph - 0.14 in   Mostly Cloudy
5:53 PM 62.1 °F 53.1 °F 72% 30.03 in 10.0 mi ESE 13.8 mph - N/A   Mostly Cloudy